Year,Month,Day,Hour,Minute,Value (Times are PST for temperature in C)
2014,09,27,00,00,9.90
2014,09,27,00,01,9.90
2014,09,27,00,02,9.90
2014,09,27,00,03,9.90
2014,09,27,00,04,9.90
2014,09,27,00,05,9.90
2014,09,27,00,06,9.90
2014,09,27,00,07,9.80
2014,09,27,00,08,9.80
2014,09,27,00,09,9.70
2014,09,27,00,10,9.60
2014,09,27,00,11,9.60
2014,09,27,00,12,9.50
2014,09,27,00,13,9.40
2014,09,27,00,14,9.40
2014,09,27,00,15,9.40
2014,09,27,00,16,9.30
2014,09,27,00,17,9.30
2014,09,27,00,18,9.30
2014,09,27,00,19,9.20
2014,09,27,00,20,9.20
2014,09,27,00,21,9.20
2014,09,27,00,22,9.20
2014,09,27,00,23,9.20
2014,09,27,00,24,9.10
2014,09,27,00,25,9.10
2014,09,27,00,26,9.10
2014,09,27,00,27,9.10
2014,09,27,00,28,9.10
2014,09,27,00,29,9.10
2014,09,27,00,30,9.10
2014,09,27,00,31,9.10
2014,09,27,00,32,9.20
2014,09,27,00,33,9.20
2014,09,27,00,34,9.20
2014,09,27,00,35,9.20
2014,09,27,00,36,9.20
2014,09,27,00,37,9.20
2014,09,27,00,38,9.20
2014,09,27,00,39,9.30
2014,09,27,00,40,9.30
2014,09,27,00,41,9.30
2014,09,27,00,42,9.30
2014,09,27,00,43,9.30
2014,09,27,00,44,9.40
2014,09,27,00,45,9.40
2014,09,27,00,46,9.40
2014,09,27,00,47,9.50
2014,09,27,00,48,9.50
2014,09,27,00,49,9.60
2014,09,27,00,50,9.60
2014,09,27,00,51,9.70
2014,09,27,00,52,9.70
2014,09,27,00,53,9.80
2014,09,27,00,54,9.80
2014,09,27,00,55,9.80
2014,09,27,00,56,9.80
2014,09,27,00,57,9.80
2014,09,27,00,58,9.80
2014,09,27,00,59,9.70
2014,09,27,01,00,9.70
2014,09,27,01,01,9.70
2014,09,27,01,02,9.70
2014,09,27,01,03,9.60
2014,09,27,01,04,9.50
2014,09,27,01,05,9.40
2014,09,27,01,06,9.40
2014,09,27,01,07,9.30
2014,09,27,01,08,9.30
2014,09,27,01,09,9.20
2014,09,27,01,10,9.20
2014,09,27,01,11,9.20
2014,09,27,01,12,9.10
2014,09,27,01,13,9.10
2014,09,27,01,14,9.10
2014,09,27,01,15,9.10
2014,09,27,01,16,9.10
2014,09,27,01,17,9.00
2014,09,27,01,18,9.00
2014,09,27,01,19,9.00
2014,09,27,01,20,9.00
2014,09,27,01,21,9.00
2014,09,27,01,22,8.90
2014,09,27,01,23,8.90
2014,09,27,01,24,8.90
2014,09,27,01,25,8.90
2014,09,27,01,26,8.90
2014,09,27,01,27,8.90
2014,09,27,01,28,8.90
2014,09,27,01,29,8.90
2014,09,27,01,30,8.90
2014,09,27,01,31,8.90
2014,09,27,01,32,8.90
2014,09,27,01,33,8.90
2014,09,27,01,34,8.80
2014,09,27,01,35,8.80
2014,09,27,01,36,8.80
2014,09,27,01,37,8.80
2014,09,27,01,38,8.80
2014,09,27,01,39,8.80
2014,09,27,01,40,8.70
2014,09,27,01,41,8.70
2014,09,27,01,42,8.70
2014,09,27,01,43,8.70
2014,09,27,01,44,8.70
2014,09,27,01,45,8.70
2014,09,27,01,46,8.60
2014,09,27,01,47,8.60
2014,09,27,01,48,8.60
2014,09,27,01,49,8.60
2014,09,27,01,50,8.60
2014,09,27,01,51,8.60
2014,09,27,01,52,8.50
2014,09,27,01,53,8.50
2014,09,27,01,54,8.50
2014,09,27,01,55,8.50
2014,09,27,01,56,8.50
2014,09,27,01,57,8.50
2014,09,27,01,58,8.40
2014,09,27,01,59,8.40
2014,09,27,02,00,8.40
2014,09,27,02,01,8.40
2014,09,27,02,02,8.40
2014,09,27,02,03,8.40
2014,09,27,02,04,8.40
2014,09,27,02,05,8.50
2014,09,27,02,06,8.50
2014,09,27,02,07,8.60
2014,09,27,02,08,8.60
2014,09,27,02,09,8.60
2014,09,27,02,10,8.60
2014,09,27,02,11,8.60
2014,09,27,02,12,8.60
2014,09,27,02,13,8.60
2014,09,27,02,14,8.60
2014,09,27,02,15,8.60
2014,09,27,02,16,8.60
2014,09,27,02,17,8.60
2014,09,27,02,18,8.60
2014,09,27,02,19,8.60
2014,09,27,02,20,8.60
2014,09,27,02,21,8.60
2014,09,27,02,22,8.60
2014,09,27,02,23,8.60
2014,09,27,02,24,8.60
2014,09,27,02,25,8.50
2014,09,27,02,26,8.50
2014,09,27,02,27,8.50
2014,09,27,02,28,8.50
2014,09,27,02,29,8.50
2014,09,27,02,30,8.40
2014,09,27,02,31,8.40
2014,09,27,02,32,8.40
2014,09,27,02,33,8.40
2014,09,27,02,34,8.40
2014,09,27,02,35,8.40
2014,09,27,02,36,8.30
2014,09,27,02,37,8.30
2014,09,27,02,38,8.30
2014,09,27,02,39,8.20
2014,09,27,02,40,8.20
2014,09,27,02,41,8.20
2014,09,27,02,42,8.20
2014,09,27,02,43,8.20
2014,09,27,02,44,8.10
2014,09,27,02,45,8.10
2014,09,27,02,46,8.10
2014,09,27,02,47,8.10
2014,09,27,02,48,8.10
2014,09,27,02,49,8.10
2014,09,27,02,50,8.00
2014,09,27,02,51,8.00
2014,09,27,02,52,8.00
2014,09,27,02,53,8.00
2014,09,27,02,54,7.90
2014,09,27,02,55,7.90
2014,09,27,02,56,7.90
2014,09,27,02,57,7.90
2014,09,27,02,58,7.90
2014,09,27,02,59,7.90
2014,09,27,03,00,7.90
2014,09,27,03,01,7.90
2014,09,27,03,02,7.90
2014,09,27,03,03,7.90
2014,09,27,03,04,7.90
2014,09,27,03,05,7.80
2014,09,27,03,06,7.80
2014,09,27,03,07,7.90
2014,09,27,03,08,7.90
2014,09,27,03,09,7.90
2014,09,27,03,10,7.90
2014,09,27,03,11,7.90
2014,09,27,03,12,7.90
2014,09,27,03,13,7.90
2014,09,27,03,14,7.90
2014,09,27,03,15,7.90
2014,09,27,03,16,7.90
2014,09,27,03,17,7.90
2014,09,27,03,18,7.90
2014,09,27,03,19,7.90
2014,09,27,03,20,8.00
2014,09,27,03,21,8.10
2014,09,27,03,22,8.10
2014,09,27,03,23,8.10
2014,09,27,03,24,8.10
2014,09,27,03,25,8.00
2014,09,27,03,26,8.00
2014,09,27,03,27,8.00
2014,09,27,03,28,7.90
2014,09,27,03,29,7.90
2014,09,27,03,30,7.90
2014,09,27,03,31,7.90
2014,09,27,03,32,7.90
2014,09,27,03,33,7.90
2014,09,27,03,34,7.90
2014,09,27,03,35,7.90
2014,09,27,03,36,7.90
2014,09,27,03,37,7.90
2014,09,27,03,38,7.80
2014,09,27,03,39,7.80
2014,09,27,03,40,7.80
2014,09,27,03,41,7.80
2014,09,27,03,42,7.70
2014,09,27,03,43,7.70
2014,09,27,03,44,7.70
2014,09,27,03,45,7.60
2014,09,27,03,46,7.60
2014,09,27,03,47,7.50
2014,09,27,03,48,7.50
2014,09,27,03,49,7.50
2014,09,27,03,50,7.50
2014,09,27,03,51,7.50
2014,09,27,03,52,7.50
2014,09,27,03,53,7.50
2014,09,27,03,54,7.50
2014,09,27,03,55,7.60
2014,09,27,03,56,7.60
2014,09,27,03,57,7.70
2014,09,27,03,58,7.70
2014,09,27,03,59,7.80
2014,09,27,04,00,7.80
2014,09,27,04,01,7.80
2014,09,27,04,02,7.80
2014,09,27,04,03,7.70
2014,09,27,04,04,7.70
2014,09,27,04,05,7.70
2014,09,27,04,06,7.70
2014,09,27,04,07,7.70
2014,09,27,04,08,7.60
2014,09,27,04,09,7.60
2014,09,27,04,10,7.60
2014,09,27,04,11,7.60
2014,09,27,04,12,7.50
2014,09,27,04,13,7.50
2014,09,27,04,14,7.50
2014,09,27,04,15,7.50
2014,09,27,04,16,7.40
2014,09,27,04,17,7.40
2014,09,27,04,18,7.40
2014,09,27,04,19,7.40
2014,09,27,04,20,7.40
2014,09,27,04,21,7.30
2014,09,27,04,22,7.30
2014,09,27,04,23,7.30
2014,09,27,04,24,7.30
2014,09,27,04,25,7.30
2014,09,27,04,26,7.20
2014,09,27,04,27,7.20
2014,09,27,04,28,7.20
2014,09,27,04,29,7.20
2014,09,27,04,30,7.20
2014,09,27,04,31,7.20
2014,09,27,04,32,7.20
2014,09,27,04,33,7.20
2014,09,27,04,34,7.20
2014,09,27,04,35,7.20
2014,09,27,04,36,7.20
2014,09,27,04,37,7.20
2014,09,27,04,38,7.20
2014,09,27,04,39,7.20
2014,09,27,04,40,7.20
2014,09,27,04,41,7.20
2014,09,27,04,42,7.20
2014,09,27,04,43,7.20
2014,09,27,04,44,7.20
2014,09,27,04,45,7.20
2014,09,27,04,46,7.20
2014,09,27,04,47,7.30
2014,09,27,04,48,7.30
2014,09,27,04,49,7.30
2014,09,27,04,50,7.30
2014,09,27,04,51,7.30
2014,09,27,04,52,7.30
2014,09,27,04,53,7.30
2014,09,27,04,54,7.30
2014,09,27,04,55,7.30
2014,09,27,04,56,7.30
2014,09,27,04,57,7.20
2014,09,27,04,58,7.20
2014,09,27,04,59,7.20
2014,09,27,05,00,7.20
2014,09,27,05,01,7.20
2014,09,27,05,02,7.20
2014,09,27,05,03,7.20
2014,09,27,05,04,7.20
2014,09,27,05,05,7.20
2014,09,27,05,06,7.10
2014,09,27,05,07,7.10
2014,09,27,05,08,7.10
2014,09,27,05,09,7.10
2014,09,27,05,10,7.10
2014,09,27,05,11,7.10
2014,09,27,05,12,7.10
2014,09,27,05,13,7.10
2014,09,27,05,14,7.10
2014,09,27,05,15,7.10
2014,09,27,05,16,7.10
2014,09,27,05,17,7.20
2014,09,27,05,18,7.20
2014,09,27,05,19,7.10
2014,09,27,05,20,7.10
2014,09,27,05,21,7.10
2014,09,27,05,22,7.00
2014,09,27,05,23,7.00
2014,09,27,05,24,6.90
2014,09,27,05,25,6.90
2014,09,27,05,26,6.90
2014,09,27,05,27,6.90
2014,09,27,05,28,6.80
2014,09,27,05,29,6.80
2014,09,27,05,30,6.90
2014,09,27,05,31,6.90
2014,09,27,05,32,6.90
2014,09,27,05,33,6.90
2014,09,27,05,34,7.00
2014,09,27,05,35,7.00
2014,09,27,05,36,7.00
2014,09,27,05,37,7.00
2014,09,27,05,38,7.00
2014,09,27,05,39,7.00
2014,09,27,05,40,7.00
2014,09,27,05,41,6.90
2014,09,27,05,42,6.90
2014,09,27,05,43,6.90
2014,09,27,05,44,6.90
2014,09,27,05,45,6.90
2014,09,27,05,46,6.80
2014,09,27,05,47,6.80
2014,09,27,05,48,6.80
2014,09,27,05,49,6.80
2014,09,27,05,50,6.70
2014,09,27,05,51,6.70
2014,09,27,05,52,6.70
2014,09,27,05,53,6.70
2014,09,27,05,54,6.70
2014,09,27,05,55,6.70
2014,09,27,05,56,6.70
2014,09,27,05,57,6.70
2014,09,27,05,58,6.70
2014,09,27,05,59,6.70
2014,09,27,06,00,6.60
2014,09,27,06,01,6.60
2014,09,27,06,02,6.60
2014,09,27,06,03,6.60
2014,09,27,06,04,6.60
2014,09,27,06,05,6.60
2014,09,27,06,06,6.60
2014,09,27,06,07,6.60
2014,09,27,06,08,6.60
2014,09,27,06,09,6.60
2014,09,27,06,10,6.60
2014,09,27,06,11,6.60
2014,09,27,06,12,6.60
2014,09,27,06,13,6.60
2014,09,27,06,14,6.60
2014,09,27,06,15,6.60
2014,09,27,06,16,6.60
2014,09,27,06,17,6.70
2014,09,27,06,18,6.70
2014,09,27,06,19,6.70
2014,09,27,06,20,6.70
2014,09,27,06,21,6.70
2014,09,27,06,22,6.70
2014,09,27,06,23,6.70
2014,09,27,06,24,6.80
2014,09,27,06,25,6.80
2014,09,27,06,26,6.80
2014,09,27,06,27,6.80
2014,09,27,06,28,6.80
2014,09,27,06,29,6.80
2014,09,27,06,30,6.70
2014,09,27,06,31,6.70
2014,09,27,06,32,6.70
2014,09,27,06,33,6.70
2014,09,27,06,34,6.70
2014,09,27,06,35,6.70
2014,09,27,06,36,6.70
2014,09,27,06,37,6.60
2014,09,27,06,38,6.60
2014,09,27,06,39,6.60
2014,09,27,06,40,6.50
2014,09,27,06,41,6.50
2014,09,27,06,42,6.50
2014,09,27,06,43,6.40
2014,09,27,06,44,6.40
2014,09,27,06,45,6.40
2014,09,27,06,46,6.40
2014,09,27,06,47,6.40
2014,09,27,06,48,6.40
2014,09,27,06,49,6.40
2014,09,27,06,50,6.40
2014,09,27,06,51,6.40
2014,09,27,06,52,6.40
2014,09,27,06,53,6.30
2014,09,27,06,54,6.30
2014,09,27,06,55,6.30
2014,09,27,06,56,6.40
2014,09,27,06,57,6.40
2014,09,27,06,58,6.40
2014,09,27,06,59,6.40
2014,09,27,07,00,6.40
2014,09,27,07,01,6.40
2014,09,27,07,02,6.40
2014,09,27,07,03,6.40
2014,09,27,07,04,6.40
2014,09,27,07,05,6.40
2014,09,27,07,06,6.40
2014,09,27,07,07,6.40
2014,09,27,07,08,6.40
2014,09,27,07,09,6.30
2014,09,27,07,10,6.30
2014,09,27,07,11,6.30
2014,09,27,07,12,6.20
2014,09,27,07,13,6.20
2014,09,27,07,14,6.20
2014,09,27,07,15,6.20
2014,09,27,07,16,6.20
2014,09,27,07,17,6.20
2014,09,27,07,18,6.20
2014,09,27,07,19,6.20
2014,09,27,07,20,6.20
2014,09,27,07,21,6.20
2014,09,27,07,22,6.30
2014,09,27,07,23,6.30
2014,09,27,07,24,6.30
2014,09,27,07,25,6.30
2014,09,27,07,26,6.30
2014,09,27,07,27,6.30
2014,09,27,07,28,6.30
2014,09,27,07,29,6.30
2014,09,27,07,30,6.30
2014,09,27,07,31,6.30
2014,09,27,07,32,6.30
2014,09,27,07,33,6.30
2014,09,27,07,34,6.30
2014,09,27,07,35,6.30
2014,09,27,07,36,6.30
2014,09,27,07,37,6.30
2014,09,27,07,38,6.30
2014,09,27,07,39,6.30
2014,09,27,07,40,6.30
2014,09,27,07,41,6.30
2014,09,27,07,42,6.30
2014,09,27,07,43,6.30
2014,09,27,07,44,6.30
2014,09,27,07,45,6.30
2014,09,27,07,46,6.30
2014,09,27,07,47,6.30
2014,09,27,07,48,6.30
2014,09,27,07,49,6.30
2014,09,27,07,50,6.30
2014,09,27,07,51,6.30
2014,09,27,07,52,6.30
2014,09,27,07,53,6.30
2014,09,27,07,54,6.30
2014,09,27,07,55,6.30
2014,09,27,07,56,6.30
2014,09,27,07,57,6.30
2014,09,27,07,58,6.40
2014,09,27,07,59,6.40
2014,09,27,08,00,6.50
2014,09,27,08,01,6.50
2014,09,27,08,02,6.60
2014,09,27,08,03,6.60
2014,09,27,08,04,6.70
2014,09,27,08,05,6.80
2014,09,27,08,06,6.90
2014,09,27,08,07,6.90
2014,09,27,08,08,7.00
2014,09,27,08,09,7.10
2014,09,27,08,10,7.10
2014,09,27,08,11,7.10
2014,09,27,08,12,7.20
2014,09,27,08,13,7.30
2014,09,27,08,14,7.40
2014,09,27,08,15,7.50
2014,09,27,08,16,7.60
2014,09,27,08,17,7.70
2014,09,27,08,18,7.70
2014,09,27,08,19,7.80
2014,09,27,08,20,7.80
2014,09,27,08,21,7.90
2014,09,27,08,22,8.00
2014,09,27,08,23,8.10
2014,09,27,08,24,8.10
2014,09,27,08,25,8.20
2014,09,27,08,26,8.30
2014,09,27,08,27,8.40
2014,09,27,08,28,8.40
2014,09,27,08,29,8.50
2014,09,27,08,30,8.50
2014,09,27,08,31,8.50
2014,09,27,08,32,8.50
2014,09,27,08,33,8.60
2014,09,27,08,34,8.60
2014,09,27,08,35,8.60
2014,09,27,08,36,8.60
2014,09,27,08,37,8.70
2014,09,27,08,38,8.70
2014,09,27,08,39,8.80
2014,09,27,08,40,8.80
2014,09,27,08,41,8.90
2014,09,27,08,42,9.00
2014,09,27,08,43,9.00
2014,09,27,08,44,9.10
2014,09,27,08,45,9.20
2014,09,27,08,46,9.30
2014,09,27,08,47,9.40
2014,09,27,08,48,9.60
2014,09,27,08,49,9.70
2014,09,27,08,50,9.80
2014,09,27,08,51,9.90
2014,09,27,08,52,10.00
2014,09,27,08,53,10.20
2014,09,27,08,54,10.30
2014,09,27,08,55,10.40
2014,09,27,08,56,10.40
2014,09,27,08,57,10.50
2014,09,27,08,58,10.60
2014,09,27,08,59,10.70
2014,09,27,09,00,10.70
2014,09,27,09,01,10.70
2014,09,27,09,02,10.70
2014,09,27,09,03,10.70
2014,09,27,09,04,10.70
2014,09,27,09,05,10.70
2014,09,27,09,06,10.70
2014,09,27,09,07,10.70
2014,09,27,09,08,10.70
2014,09,27,09,09,10.70
2014,09,27,09,10,10.70
2014,09,27,09,11,10.80
2014,09,27,09,12,10.80
2014,09,27,09,13,10.80
2014,09,27,09,14,10.90
2014,09,27,09,15,10.90
2014,09,27,09,16,11.00
2014,09,27,09,17,11.00
2014,09,27,09,18,11.10
2014,09,27,09,19,11.10
2014,09,27,09,20,11.20
2014,09,27,09,21,11.30
2014,09,27,09,22,11.30
2014,09,27,09,23,11.40
2014,09,27,09,24,11.50
2014,09,27,09,25,11.50
2014,09,27,09,26,11.60
2014,09,27,09,27,11.70
2014,09,27,09,28,11.70
2014,09,27,09,29,11.80
2014,09,27,09,30,11.80
2014,09,27,09,31,12.00
2014,09,27,09,32,12.10
2014,09,27,09,33,12.10
2014,09,27,09,34,12.20
2014,09,27,09,35,12.30
2014,09,27,09,36,12.50
2014,09,27,09,37,12.60
2014,09,27,09,38,12.70
2014,09,27,09,39,12.80
2014,09,27,09,40,12.90
2014,09,27,09,41,12.90
2014,09,27,09,42,13.00
2014,09,27,09,43,13.00
2014,09,27,09,44,13.00
2014,09,27,09,45,13.10
2014,09,27,09,46,13.10
2014,09,27,09,47,13.30
2014,09,27,09,48,13.30
2014,09,27,09,49,13.40
2014,09,27,09,50,13.60
2014,09,27,09,51,13.70
2014,09,27,09,52,13.80
2014,09,27,09,53,13.90
2014,09,27,09,54,14.00
2014,09,27,09,55,14.10
2014,09,27,09,56,14.20
2014,09,27,09,57,14.30
2014,09,27,09,58,14.40
2014,09,27,09,59,14.50
2014,09,27,10,00,14.60
2014,09,27,10,01,14.60
2014,09,27,10,02,14.70
2014,09,27,10,03,14.80
2014,09,27,10,04,14.80
2014,09,27,10,05,14.90
2014,09,27,10,06,14.90
2014,09,27,10,07,15.00
2014,09,27,10,08,15.10
2014,09,27,10,09,15.10
2014,09,27,10,10,15.20
2014,09,27,10,11,15.20
2014,09,27,10,12,15.30
2014,09,27,10,13,15.30
2014,09,27,10,14,15.30
2014,09,27,10,15,15.30
2014,09,27,10,16,15.40
2014,09,27,10,17,15.40
2014,09,27,10,18,15.40
2014,09,27,10,19,15.40
2014,09,27,10,20,15.40
2014,09,27,10,21,15.50
2014,09,27,10,22,15.50
2014,09,27,10,23,15.60
2014,09,27,10,24,15.60
2014,09,27,10,25,15.60
2014,09,27,10,26,15.70
2014,09,27,10,27,15.70
2014,09,27,10,28,15.70
2014,09,27,10,29,15.70
2014,09,27,10,30,15.70
2014,09,27,10,31,15.70
2014,09,27,10,32,15.80
2014,09,27,10,33,15.80
2014,09,27,10,34,15.80
2014,09,27,10,35,15.90
2014,09,27,10,36,15.90
2014,09,27,10,37,15.90
2014,09,27,10,38,16.00
2014,09,27,10,39,16.00
2014,09,27,10,40,16.00
2014,09,27,10,41,16.00
2014,09,27,10,42,16.00
2014,09,27,10,43,15.90
2014,09,27,10,44,15.90
2014,09,27,10,45,15.90
2014,09,27,10,46,15.90
2014,09,27,10,47,15.80
2014,09,27,10,48,15.80
2014,09,27,10,49,15.80
2014,09,27,10,50,15.80
2014,09,27,10,51,15.80
2014,09,27,10,52,15.90
2014,09,27,10,53,15.90
2014,09,27,10,54,15.90
2014,09,27,10,55,16.00
2014,09,27,10,56,16.10
2014,09,27,10,57,16.10
2014,09,27,10,58,16.10
2014,09,27,10,59,16.10
2014,09,27,11,00,16.10
2014,09,27,11,01,16.10
2014,09,27,11,02,16.20
2014,09,27,11,03,16.20
2014,09,27,11,04,16.20
2014,09,27,11,05,16.20
2014,09,27,11,06,16.30
2014,09,27,11,07,16.30
2014,09,27,11,08,16.40
2014,09,27,11,09,16.40
2014,09,27,11,10,16.50
2014,09,27,11,11,16.50
2014,09,27,11,12,16.60
2014,09,27,11,13,16.60
2014,09,27,11,14,16.60
2014,09,27,11,15,16.60
2014,09,27,11,16,16.60
2014,09,27,11,17,16.60
2014,09,27,11,18,16.60
2014,09,27,11,19,16.60
2014,09,27,11,20,16.60
2014,09,27,11,21,16.60
2014,09,27,11,22,16.50
2014,09,27,11,23,16.40
2014,09,27,11,24,16.40
2014,09,27,11,25,16.40
2014,09,27,11,26,16.30
2014,09,27,11,27,16.20
2014,09,27,11,28,16.10
2014,09,27,11,29,16.00
2014,09,27,11,30,15.80
2014,09,27,11,31,15.70
2014,09,27,11,32,15.70
2014,09,27,11,33,15.60
2014,09,27,11,34,15.50
2014,09,27,11,35,15.40
2014,09,27,11,36,15.40
2014,09,27,11,37,15.30
2014,09,27,11,38,15.20
2014,09,27,11,39,15.10
2014,09,27,11,40,15.00
2014,09,27,11,41,14.90
2014,09,27,11,42,14.80
2014,09,27,11,43,14.70
2014,09,27,11,44,14.60
2014,09,27,11,45,14.50
2014,09,27,11,46,14.50
2014,09,27,11,47,14.40
2014,09,27,11,48,14.40
2014,09,27,11,49,14.40
2014,09,27,11,50,14.30
2014,09,27,11,51,14.30
2014,09,27,11,52,14.30
2014,09,27,11,53,14.30
2014,09,27,11,54,14.30
2014,09,27,11,55,14.30
2014,09,27,11,56,14.30
2014,09,27,11,57,14.40
2014,09,27,11,58,14.40
2014,09,27,11,59,14.50
2014,09,27,12,00,14.60
2014,09,27,12,01,14.70
2014,09,27,12,02,14.70
2014,09,27,12,03,14.80
2014,09,27,12,04,14.90
2014,09,27,12,05,14.90
2014,09,27,12,06,14.90
2014,09,27,12,07,14.90
2014,09,27,12,08,14.90
2014,09,27,12,09,14.90
2014,09,27,12,10,14.90
2014,09,27,12,11,14.90
2014,09,27,12,12,15.00
2014,09,27,12,13,15.00
2014,09,27,12,14,15.00
2014,09,27,12,15,15.00
2014,09,27,12,16,15.00
2014,09,27,12,17,15.00
2014,09,27,12,18,15.00
2014,09,27,12,19,14.90
2014,09,27,12,20,14.90
2014,09,27,12,21,14.90
2014,09,27,12,22,15.00
2014,09,27,12,23,15.00
2014,09,27,12,24,15.00
2014,09,27,12,25,15.10
2014,09,27,12,26,15.10
2014,09,27,12,27,15.10
2014,09,27,12,28,15.10
2014,09,27,12,29,15.10
2014,09,27,12,30,15.00
2014,09,27,12,31,14.90
2014,09,27,12,32,14.80
2014,09,27,12,33,14.80
2014,09,27,12,34,14.70
2014,09,27,12,35,14.70
2014,09,27,12,36,14.70
2014,09,27,12,37,14.70
2014,09,27,12,38,14.70
2014,09,27,12,39,14.70
2014,09,27,12,40,14.70
2014,09,27,12,41,14.70
2014,09,27,12,42,14.70
2014,09,27,12,43,14.70
2014,09,27,12,44,14.70
2014,09,27,12,45,14.70
2014,09,27,12,46,14.80
2014,09,27,12,47,14.90
2014,09,27,12,48,15.00
2014,09,27,12,49,15.10
2014,09,27,12,50,15.20
2014,09,27,12,51,15.30
2014,09,27,12,52,15.30
2014,09,27,12,53,15.40
2014,09,27,12,54,15.40
2014,09,27,12,55,15.40
2014,09,27,12,56,15.40
2014,09,27,12,57,15.40
2014,09,27,12,58,15.40
2014,09,27,12,59,15.40
2014,09,27,13,00,15.50
2014,09,27,13,01,15.50
2014,09,27,13,02,15.60
2014,09,27,13,03,15.70
2014,09,27,13,04,15.70
2014,09,27,13,05,15.70
2014,09,27,13,06,15.70
2014,09,27,13,07,15.70
2014,09,27,13,08,15.70
2014,09,27,13,09,15.80
2014,09,27,13,10,15.80
2014,09,27,13,11,15.80
2014,09,27,13,12,15.90
2014,09,27,13,13,15.90
2014,09,27,13,14,15.90
2014,09,27,13,15,15.80
2014,09,27,13,16,15.70
2014,09,27,13,17,15.60
2014,09,27,13,18,15.60
2014,09,27,13,19,15.60
2014,09,27,13,20,15.60
2014,09,27,13,21,15.60
2014,09,27,13,22,15.60
2014,09,27,13,23,15.70
2014,09,27,13,24,15.70
2014,09,27,13,25,15.60
2014,09,27,13,26,15.60
2014,09,27,13,27,15.60
2014,09,27,13,28,15.70
2014,09,27,13,29,15.70
2014,09,27,13,30,15.80
2014,09,27,13,31,15.80
2014,09,27,13,32,15.80
2014,09,27,13,33,15.80
2014,09,27,13,34,15.80
2014,09,27,13,35,15.80
2014,09,27,13,36,15.80
2014,09,27,13,37,15.80
2014,09,27,13,38,15.80
2014,09,27,13,39,15.80
2014,09,27,13,40,15.70
2014,09,27,13,41,15.80
2014,09,27,13,42,15.80
2014,09,27,13,43,15.80
2014,09,27,13,44,15.80
2014,09,27,13,45,15.90
2014,09,27,13,46,16.00
2014,09,27,13,47,16.00
2014,09,27,13,48,16.10
2014,09,27,13,49,16.10
2014,09,27,13,50,16.20
2014,09,27,13,51,16.20
2014,09,27,13,52,16.20
2014,09,27,13,53,16.20
2014,09,27,13,54,16.20
2014,09,27,13,55,16.20
2014,09,27,13,56,16.20
2014,09,27,13,57,16.30
2014,09,27,13,58,16.30
2014,09,27,13,59,16.30
2014,09,27,14,00,16.30
2014,09,27,14,01,16.30
2014,09,27,14,02,16.40
2014,09,27,14,03,16.40
2014,09,27,14,04,16.50
2014,09,27,14,05,16.50
2014,09,27,14,06,16.50
2014,09,27,14,07,16.60
2014,09,27,14,08,16.70
2014,09,27,14,09,16.80
2014,09,27,14,10,16.80
2014,09,27,14,11,16.70
2014,09,27,14,12,16.70
2014,09,27,14,13,16.70
2014,09,27,14,14,16.70
2014,09,27,14,15,16.70
2014,09,27,14,16,16.80
2014,09,27,14,17,16.80
2014,09,27,14,18,16.90
2014,09,27,14,19,16.90
2014,09,27,14,20,16.90
2014,09,27,14,21,16.90
2014,09,27,14,22,16.90
2014,09,27,14,23,16.90
2014,09,27,14,24,16.90
2014,09,27,14,25,16.90
2014,09,27,14,26,17.00
2014,09,27,14,27,17.00
2014,09,27,14,28,17.10
2014,09,27,14,29,17.10
2014,09,27,14,30,17.10
2014,09,27,14,31,17.10
2014,09,27,14,32,17.10
2014,09,27,14,33,17.20
2014,09,27,14,34,17.30
2014,09,27,14,35,17.30
2014,09,27,14,36,17.40
2014,09,27,14,37,17.50
2014,09,27,14,38,17.50
2014,09,27,14,39,17.50
2014,09,27,14,40,17.60
2014,09,27,14,41,17.60
2014,09,27,14,42,17.60
2014,09,27,14,43,17.70
2014,09,27,14,44,17.80
2014,09,27,14,45,17.90
2014,09,27,14,46,18.00
2014,09,27,14,47,18.10
2014,09,27,14,48,18.20
2014,09,27,14,49,18.30
2014,09,27,14,50,18.40
2014,09,27,14,51,18.40
2014,09,27,14,52,18.40
2014,09,27,14,53,18.40
2014,09,27,14,54,18.50
2014,09,27,14,55,18.60
2014,09,27,14,56,18.60
2014,09,27,14,57,18.60
2014,09,27,14,58,18.50
2014,09,27,14,59,18.50
2014,09,27,15,00,18.50
2014,09,27,15,01,18.50
2014,09,27,15,02,18.60
2014,09,27,15,03,18.60
2014,09,27,15,04,18.60
2014,09,27,15,05,18.70
2014,09,27,15,06,18.60
2014,09,27,15,07,18.60
2014,09,27,15,08,18.60
2014,09,27,15,09,18.60
2014,09,27,15,10,18.50
2014,09,27,15,11,18.50
2014,09,27,15,12,18.60
2014,09,27,15,13,18.60
2014,09,27,15,14,18.60
2014,09,27,15,15,18.60
2014,09,27,15,16,18.60
2014,09,27,15,17,18.70
2014,09,27,15,18,18.60
2014,09,27,15,19,18.60
2014,09,27,15,20,18.50
2014,09,27,15,21,18.50
2014,09,27,15,22,18.60
2014,09,27,15,23,18.60
2014,09,27,15,24,18.60
2014,09,27,15,25,18.60
2014,09,27,15,26,18.70
2014,09,27,15,27,18.70
2014,09,27,15,28,18.80
2014,09,27,15,29,18.80
2014,09,27,15,30,18.90
2014,09,27,15,31,18.90
2014,09,27,15,32,18.90
2014,09,27,15,33,18.90
2014,09,27,15,34,18.90
2014,09,27,15,35,18.90
2014,09,27,15,36,18.90
2014,09,27,15,37,18.80
2014,09,27,15,38,18.80
2014,09,27,15,39,18.80
2014,09,27,15,40,18.70
2014,09,27,15,41,18.60
2014,09,27,15,42,18.50
2014,09,27,15,43,18.50
2014,09,27,15,44,18.60
2014,09,27,15,45,18.50
2014,09,27,15,46,18.40
2014,09,27,15,47,18.40
2014,09,27,15,48,18.40
2014,09,27,15,49,18.40
2014,09,27,15,50,18.30
2014,09,27,15,51,18.30
2014,09,27,15,52,18.40
2014,09,27,15,53,18.40
2014,09,27,15,54,18.30
2014,09,27,15,55,18.30
2014,09,27,15,56,18.30
2014,09,27,15,57,18.30
2014,09,27,15,58,18.30
2014,09,27,15,59,18.30
2014,09,27,16,00,18.40
2014,09,27,16,01,18.40
2014,09,27,16,02,18.30
2014,09,27,16,03,18.30
2014,09,27,16,04,18.30
2014,09,27,16,05,18.30
2014,09,27,16,06,18.40
2014,09,27,16,07,18.40
2014,09,27,16,08,18.40
2014,09,27,16,09,18.40
2014,09,27,16,10,18.40
2014,09,27,16,11,18.30
2014,09,27,16,12,18.40
2014,09,27,16,13,18.40
2014,09,27,16,14,18.40
2014,09,27,16,15,18.40
2014,09,27,16,16,18.50
2014,09,27,16,17,18.50
2014,09,27,16,18,18.60
2014,09,27,16,19,18.70
2014,09,27,16,20,18.70
2014,09,27,16,21,18.80
2014,09,27,16,22,18.80
2014,09,27,16,23,18.90
2014,09,27,16,24,18.90
2014,09,27,16,25,19.00
2014,09,27,16,26,19.00
2014,09,27,16,27,19.00
2014,09,27,16,28,18.90
2014,09,27,16,29,18.90
2014,09,27,16,30,18.90
2014,09,27,16,31,18.90
2014,09,27,16,32,18.80
2014,09,27,16,33,18.70
2014,09,27,16,34,18.70
2014,09,27,16,35,18.60
2014,09,27,16,36,18.50
2014,09,27,16,37,18.50
2014,09,27,16,38,18.50
2014,09,27,16,39,18.40
2014,09,27,16,40,18.40
2014,09,27,16,41,18.40
2014,09,27,16,42,18.40
2014,09,27,16,43,18.40
2014,09,27,16,44,18.40
2014,09,27,16,45,18.30
2014,09,27,16,46,18.30
2014,09,27,16,47,18.30
2014,09,27,16,48,18.30
2014,09,27,16,49,18.30
2014,09,27,16,50,18.30
2014,09,27,16,51,18.40
2014,09,27,16,52,18.50
2014,09,27,16,53,18.50
2014,09,27,16,54,18.60
2014,09,27,16,55,18.60
2014,09,27,16,56,18.60
2014,09,27,16,57,18.60
2014,09,27,16,58,18.60
2014,09,27,16,59,18.60
2014,09,27,17,00,18.60
2014,09,27,17,01,18.50
2014,09,27,17,02,18.40
2014,09,27,17,03,18.40
2014,09,27,17,04,18.30
2014,09,27,17,05,18.30
2014,09,27,17,06,18.20
2014,09,27,17,07,18.20
2014,09,27,17,08,18.20
2014,09,27,17,09,18.10
2014,09,27,17,10,18.00
2014,09,27,17,11,17.90
2014,09,27,17,12,17.90
2014,09,27,17,13,17.80
2014,09,27,17,14,17.80
2014,09,27,17,15,17.80
2014,09,27,17,16,17.90
2014,09,27,17,17,17.90
2014,09,27,17,18,17.90
2014,09,27,17,19,17.90
2014,09,27,17,20,18.00
2014,09,27,17,21,18.00
2014,09,27,17,22,18.10
2014,09,27,17,23,18.10
2014,09,27,17,24,18.10
2014,09,27,17,25,18.20
2014,09,27,17,26,18.20
2014,09,27,17,27,18.20
2014,09,27,17,28,18.20
2014,09,27,17,29,18.20
2014,09,27,17,30,18.20
2014,09,27,17,31,18.20
2014,09,27,17,32,18.20
2014,09,27,17,33,18.20
2014,09,27,17,34,18.10
2014,09,27,17,35,18.10
2014,09,27,17,36,18.10
2014,09,27,17,37,18.10
2014,09,27,17,38,18.10
2014,09,27,17,39,18.10
2014,09,27,17,40,18.20
2014,09,27,17,41,18.20
2014,09,27,17,42,18.20